NA5X-13 Weather Reports


time (UTC)temp
C
wind
direction
speed
KPH
gust
KPH
rain 1hr
cm
rain 24hr
cm
rain mn
cm
humidity
%
barometer
mb
20260506033034 25 198 1.6 9.7 0.00 0.00 0.00 86 1007.9
20260506031531 25 152 4.8 9.7 0.00 0.00 0.00 86 1007.6
20260506030027 25 231 4.8 9.7 0.00 0.00 0.00 86 1007.1
20260506024524 25 172 4.8 16.1 0.00 0.00 0.00 85 1006.9
20260506023100 25 217 3.2 12.9 0.00 0.00 0.00 85 1006.7
20260506021534 25 197 4.8 11.3 0.00 0.00 0.00 84 1006.4
20260506020036 26 193 3.2 6.4 0.00 0.00 0.00 83 1006.5
20260506014532 26 207 3.2 12.9 0.00 0.00 0.00 83 1006.4
20260506013029 26 212 4.8 9.7 0.00 0.00 0.00 82 1006.2
20260506011525 26 234 3.2 9.7 0.00 0.00 0.00 81 1006.1
20260506010037 27 233 6.4 12.9 0.00 0.00 0.00 80 1006.1
20260506004534 27 160 4.8 14.5 0.00 0.00 0.00 79 1006.0
20260506003031 27 214 6.4 14.5 0.00 0.00 0.00 78 1005.9
20260506001522 28 185 8.0 16.1 0.00 0.00 0.00 77 1006.1
20260506000056 28 210 4.8 14.5 0.00 0.00 0.00 76 1006.1
20260505234528 28 200 8.0 16.1 0.00 0.00 0.00 76 1006.0
20260505233047 28 233 8.0 17.7 0.00 0.00 0.00 75 1005.9
20260505231535 28 147 8.0 17.7 0.00 0.00 0.00 75 1005.8
20260505230030 28 178 8.0 19.3 0.00 0.00 0.00 74 1005.7
20260505224527 28 143 9.7 19.3 0.00 0.00 0.00 75 1005.8
20260505223024 28 167 9.7 20.9 0.00 0.00 0.00 74 1005.7
20260505221535 28 195 8.0 17.7 0.00 0.00 0.00 73 1005.6
20260505220032 28 172 6.4 20.9 0.00 0.00 0.00 74 1005.7
20260505214522 29 162 8.0 19.3 0.00 0.00 0.00 72 1005.7
20260505213034 29 184 9.7 17.7 0.00 0.00 0.00 73 1006.0
20260505211531 29 226 4.8 22.5 0.00 0.00 0.00 72 1006.1
20260505210030 29 150 8.0 17.7 0.00 0.00 0.00 72 1006.2
20260505204526 29 184 8.0 17.7 0.00 0.00 0.00 72 1006.5
20260505203043 29 176 4.8 20.9 0.00 0.00 0.00 72 1006.6
20260505201540 29 217 8.0 17.7 0.00 0.00 0.00 72 1006.5
20260505200056 28 229 8.0 20.9 0.00 0.00 0.00 72 1006.6
20260505194531 29 175 8.0 16.1 0.00 0.00 0.00 72 1006.7
20260505193024 28 146 6.4 16.1 0.00 0.00 0.00 73 1007.1
20260505191607 28 253 9.7 20.9 0.00 0.00 0.00 73 1007.2
20260505190029 28 207 12.9 27.4 0.00 0.00 0.00 72 1007.0
20260505184549 28 153 9.7 19.3 0.00 0.00 0.00 73 1007.2
20260505183034 28 205 14.5 29.0 0.00 0.00 0.00 73 1007.4
20260505181530 28 197 9.7 22.5 0.00 0.00 0.00 74 1007.4
20260505180024 28 198 9.7 20.9 0.00 0.00 0.00 74 1007.5
20260505174536 27 197 6.4 20.9 0.00 0.00 0.00 75 1007.9
20260505173033 27 215 11.3 25.7 0.00 0.00 0.00 75 1008.2
20260505171528 27 191 9.7 19.3 0.00 0.00 0.00 76 1008.1
20260505170036 26 234 6.4 19.3 0.00 0.00 0.00 77 1008.1
20260505164532 26 156 6.4 20.9 0.00 0.00 0.00 77 1008.1
20260505163027 26 229 6.4 19.3 0.00 0.00 0.00 79 1008.2
20260505161524 25 181 8.0 22.5 0.00 0.00 0.00 80 1008.2
20260505153054 24 203 4.8 16.1 0.00 0.00 0.00 83 1008.3
20260505151529 23 257 9.7 24.1 0.00 0.00 0.00 84 1008.3
20260505124539 21 208 4.8 14.5 0.00 0.00 0.00 88 1007.4
20260505123051 21 191 4.8 14.5 0.00 0.00 0.00 88 1007.3
20260505121526 21 175 8.0 16.1 0.00 0.00 0.00 88 1007.1
20260505120036 21 193 4.8 14.5 0.00 0.00 0.00 88 1006.9
20260505114532 22 205 6.4 16.1 0.00 0.00 0.00 88 1006.9
20260505113028 22 206 4.8 16.1 0.00 0.00 0.00 88 1006.7
20260505111525 22 226 4.8 17.7 0.00 0.00 0.00 88 1006.8
20260505101526 21 184 6.4 14.5 0.00 0.00 0.00 88 1006.9
20260505100037 21 180 4.8 9.7 0.00 0.00 0.00 88 1007.0
20260505094552 21 237 6.4 12.9 0.00 0.00 0.00 88 1007.0
20260505093030 21 203 4.8 12.9 0.00 0.00 0.00 88 1007.1
20260505091528 21 224 6.4 19.3 0.00 0.00 0.00 87 1007.1
20260505090045 21 215 6.4 22.5 0.00 0.00 0.00 87 1007.0
20260505084542 21 176 8.0 17.7 0.00 0.00 0.00 87 1007.1
20260505083029 21 144 6.4 17.7 0.00 0.00 0.00 87 1007.1
20260505081547 21 195 9.7 24.1 0.00 0.00 0.00 87 1007.3
20260505080044 21 217 12.9 24.1 0.00 0.00 0.00 86 1007.5
20260505074551 22 179 11.3 25.7 0.00 0.00 0.00 86 1007.8
20260505073027 22 238 4.8 25.7 0.00 0.00 0.00 86 1008.0
20260505071544 22 213 6.4 27.4 0.00 0.00 0.00 86 1008.3
20260505070058 22 194 9.7 20.9 0.00 0.00 0.00 85 1008.5
20260505064532 22 174 11.3 25.7 0.00 0.00 0.00 85 1008.5
20260505063028 22 205 6.4 17.7 0.00 0.00 0.00 85 1008.7
20260505061601 22 221 6.4 17.7 0.00 0.00 0.00 85 1008.9
20260505060055 22 153 6.4 17.7 0.00 0.00 0.00 85 1008.9
20260505054527 22 242 6.4 12.9 0.00 0.00 0.00 85 1009.1
20260505053037 22 221 3.2 11.3 0.00 0.00 0.00 84 1008.9
20260505051533 22 224 4.8 9.7 0.00 0.00 0.00 84 1009.0
20260505041532 23 203 6.4 14.5 0.00 0.00 0.00 81 1008.9
20260505040028 23 212 6.4 11.3 0.00 0.00 0.00 79 1008.8